St. Augustine, FL

1:18 PM EDT on April 30, 2017 (GMT -0400)
Saint Augustine

Weather History for KSGJ - January, 2013

Change the Weather History Date:

Monday, January 7, 2013

  Actual Average Record
Temperature  
Mean Temperature 58 °F -  
Max Temperature 64 °F 62 °F 81 °F (1982)
Min Temperature 51 °F 44 °F 26 °F (2014)
Degree Days  
Heating Degree Days 8    
Growing Degree Days 8 (Base 50)    
Moisture  
Dew Point 52 °F    
Average Humidity 82    
Maximum Humidity 94    
Minimum Humidity 70    
Precipitation  
Precipitation 0.00 in - - ()
Sea Level Pressure  
Sea Level Pressure 30.24 in    
Wind  
Wind Speed 9 mph (North)    
Max Wind Speed 18 mph    
Max Gust Speed 23 mph    
Visibility 10 miles    
Events      
Averages and records for this station are not official NWS values.
T = Trace of Precipitation, MM = Missing Value Source: NWS Daily Summary

Daily Weather History Graph

Daily Weather History Graph

Search for Another Location

Airport or City:

Trip Planner

Search our weather history database for the weather conditions in past years. The results will help you decide how hot, cold, wet, or windy it might be!

Date:

Astronomy

Jan. 07, 2013 Rise Set
Actual Time 7:22 AM EST 5:41 PM EST
Civil Twilight 6:56 AM EST 6:07 PM EST
Nautical Twilight 6:26 AM EST 6:37 PM EST
Astronomical Twilight 5:57 AM EST 7:06 PM EST
Moon 2:49 AM EST (1/7) 1:47 PM EST (1/7)
Length of Visible Light 11h 11m
Length of Day
10h 19m
Waning Crescent, 23% of the Moon is Illuminated
Jan 7
Waning Crescent
Jan 11
New
Jan 18
First Quarter
Jan 26
Full
Feb 3
Last Quarter

Hourly Weather History & Observations

Time (EST) Temp. Dew Point Humidity Pressure Visibility Wind Dir Wind Speed Gust Speed Precip Events Conditions
12:47 AM 55.4 °F 53.6 °F 94% 30.20 in 10.0 mi NW 5.8 mph - N/A   Overcast
12:58 AM 55.9 °F 54.0 °F 93% 30.19 in 10.0 mi NW 5.8 mph - N/A   Overcast
1:58 AM 53.1 °F 50.0 °F 89% 30.19 in 10.0 mi NNW 8.1 mph - N/A   Partly Cloudy
2:58 AM 52.0 °F 48.0 °F 86% 30.19 in 10.0 mi NNW 9.2 mph - N/A   Clear
3:58 AM 52.0 °F 46.9 °F 83% 30.20 in 10.0 mi North 11.5 mph - N/A   Clear
4:58 AM 52.0 °F 46.9 °F 83% 30.21 in 10.0 mi NNW 10.4 mph - N/A   Clear
5:58 AM 51.1 °F 46.0 °F 83% 30.22 in 10.0 mi North 8.1 mph - N/A   Clear
7:58 AM 53.1 °F 46.9 °F 80% 30.26 in 10.0 mi North 13.8 mph - N/A   Mostly Cloudy
8:58 AM 54.0 °F 48.9 °F 83% 30.28 in 10.0 mi North 11.5 mph - N/A   Mostly Cloudy
9:58 AM 55.9 °F 50.0 °F 80% 30.30 in 10.0 mi NNE 10.4 mph - N/A   Clear
10:58 AM 59.0 °F 52.0 °F 78% 30.29 in 10.0 mi North 11.5 mph - N/A   Clear
11:58 AM 61.0 °F 53.1 °F 75% 30.27 in 10.0 mi North 10.4 mph - N/A   Clear
12:58 PM 64.0 °F 54.0 °F 70% 30.25 in 10.0 mi NNE 12.7 mph - N/A   Clear
1:58 PM 64.0 °F 55.0 °F 73% 30.23 in 10.0 mi North 12.7 mph - N/A   Clear
2:58 PM 63.0 °F 54.0 °F 72% 30.23 in 10.0 mi North 11.5 mph - N/A   Clear
3:58 PM 62.1 °F 54.0 °F 75% 30.24 in 10.0 mi North 16.1 mph 23.0 mph N/A   Partly Cloudy
4:58 PM 60.1 °F 53.1 °F 78% 30.25 in 10.0 mi North 18.4 mph - N/A   Partly Cloudy
5:58 PM 59.0 °F 54.0 °F 83% 30.25 in 10.0 mi North 12.7 mph - N/A   Mostly Cloudy
6:58 PM 60.1 °F 55.9 °F 86% 30.25 in 10.0 mi North 5.8 mph - N/A   Overcast
7:58 PM 61.0 °F 55.9 °F 83% 30.25 in 10.0 mi NNW 9.2 mph - N/A   Overcast
8:58 PM 61.0 °F 57.0 °F 87% 30.26 in 10.0 mi NNW 8.1 mph - N/A   Overcast
9:58 PM 61.0 °F 55.9 °F 83% 30.25 in 10.0 mi NNW 6.9 mph - N/A   Overcast
10:58 PM 61.0 °F 55.9 °F 83% 30.25 in 10.0 mi North 6.9 mph - N/A   Overcast
11:58 PM 61.0 °F 57.0 °F 87% 30.23 in 10.0 mi NNW 4.6 mph - N/A   Overcast